Location: Corralito
(10.2667°N, 66.9500°W)
Time: 19:26:00
(UTC+00:00)

Cosmos 1153 Rocket - Pass Details

Date: 23 March 2023
Orbit: 953 x 1006 km, 82.9° (Epoch: 08 June)

Event Time Altitude Azimuth Distance (km) Brightness Sun altitude
Rises 23:27:16 0° 358° (N) 3,675 7.6 -12.8°
Reaches altitude 10° 23:29:48 10° 359° (N) 2,720 6.9 -13.4°
Maximum altitude 23:36:02 81° 87° (E) 980 4.4 -14.9°
Drops below altitude 10° 23:42:11 10° 174° (S) 2,687 6.7 -16.5°
Sets 23:44:40 0° 175° (S) 3,628 7.4 -17.1°
